Location: Wildlife_Club
(35.6000°N, 81.4330°W)
Time: 14:55:55
(UTC-04:00)

S-56A Canister/Altair - Visible Passes

Search period start: 17 June 2019 00:00
Search period end: 27 June 2019 00:00
Orbit: 633 x 2499 km, 38.9° (Epoch: 16 June)

Date Brightness Start Highest point End Pass type
(mag) Time Alt. Az. Time Alt. Az. Time Alt. Az.
17 Jun 7.3 22:21:35 10° WNW 22:26:37 73° NNE 22:29:09 25° E visible
18 Jun 9.6 00:26:02 10° W 00:26:33 13° W 00:26:33 13° W visible
18 Jun 7.5 21:48:42 10° WNW 21:54:04 68° N 21:58:04 13° E visible
18 Jun 8.8 23:53:20 10° W 23:55:28 24° W 23:55:28 24° W visible
19 Jun 7.8 21:15:42 10° WNW 21:21:30 66° N 21:26:01 10° E visible
19 Jun 7.8 23:20:35 10° W 23:24:23 42° SW 23:24:23 42° SW visible
20 Jun 7.3 22:47:47 10° WNW 22:52:37 55° SSW 22:53:19 49° S visible
21 Jun 7.3 22:14:54 10° WNW 22:20:09 65° SSW 22:22:16 30° SE visible
22 Jun 7.4 21:41:56 10° WNW 21:47:39 75° SSW 21:51:13 16° ESE visible
22 Jun 9.6 23:47:58 10° WSW 23:48:38 12° WSW 23:48:38 12° WSW visible
23 Jun 7.6 21:08:52 10° WNW 21:15:06 85° SSW 21:19:46 10° ESE visible
23 Jun 9.0 23:14:44 10° W 23:17:37 19° SW 23:17:37 19° SW visible
24 Jun 8.6 22:41:35 10° W 22:45:43 24° SW 22:46:38 23° SSW visible
25 Jun 8.5 22:08:26 10° W 22:13:17 30° SW 22:15:39 20° S visible
26 Jun 8.4 21:35:15 10° W 21:40:50 38° SW 21:44:42 13° SSE visible
